STARLINK-31994 (60588 NORAD) Tracking and Keplerian Element Data

This shows tracking and keplerian element data for the satellite.

Feedback or suggestion? Click here.




ElementValue
Catalog60588
NameSTARLINK-31994
Epoch Orbit943
Epoch Day286.82964285
Epoch Year2024
RAAN169.6783
Inclination53.1603
Eccentricity0.0001613
Argument of Perigee93.6663
Mean Anonmoly266.4527
Mean Motion15.39621574
Decay Rate0.00010082
L11 60588U 24150F 24286.82964285 .00010082 00000+0 26168-3 0 9991
L22 60588 53.1603 169.6783 0001613 93.6663 266.4527 15.39621574 9432



Live tracking and technical data element details for STARLINK-31994 (NORAD 60588). STARLINK-31994 can be tracked NOW for your location showing map with azimuth and elevation plus other details from your city location.







IsCatalogInMostPopularTable: catalog: 60588, numindb: 9
Update: records affected: 1



GetName: 60588 STARLINK-31994

Hit Count: updated at: Tue, 03 Dec 2024 01:28:40 GMT